| time (UTC) | temp F | wind direction | speed knots | gust knots | rain 1hr in | rain 24hr in | rain mn in | humidity % | barometer mb |
| 20260503004007 | 57 | 106 | 1.7 | 2.6 | 0.00 | 0.42 | 0.02 | 92 | 1011.7 |
| 20260503003507 | 57 | 106 | 1.7 | 2.6 | 0.01 | 0.42 | 0.02 | 92 | 1011.7 |
| 20260503003006 | 57 | 106 | 1.7 | 2.6 | 0.01 | 0.42 | 0.02 | 92 | 1011.7 |
| 20260503002507 | 57 | 106 | 1.7 | 6.1 | 0.02 | 0.42 | 0.02 | 92 | 1011.7 |
| 20260503002007 | 57 | 105 | 1.7 | 2.6 | 0.02 | 0.42 | 0.02 | 92 | 1011.7 |
| 20260503001507 | 57 | 105 | 2.6 | 6.1 | 0.02 | 0.42 | 0.02 | 92 | 1011.8 |
| 20260503001007 | 57 | 105 | 2.6 | 7.0 | 0.02 | 0.42 | 0.02 | 92 | 1011.7 |
| 20260502235507 | 57 | 103 | 2.6 | 6.1 | 0.02 | 0.42 | 0.02 | 92 | 1012.0 |
| 20260502234006 | 57 | 102 | 2.6 | 4.3 | 0.02 | 0.42 | 0.02 | 93 | 1012.2 |
| 20260502233507 | 57 | 102 | 1.7 | 6.1 | 0.01 | 0.41 | 0.01 | 92 | 1012.2 |
| 20260502233007 | 57 | 102 | 2.6 | 6.1 | 0.01 | 0.41 | 0.01 | 92 | 1012.3 |
| 20260502231507 | 56 | 101 | 1.7 | 5.2 | 0.00 | 0.40 | 0.00 | 92 | 1012.3 |
| 20260502231007 | 56 | 101 | 1.7 | 13.9 | 0.00 | 0.40 | 0.00 | 92 | 1012.2 |
| 20260502230006 | 56 | 102 | 2.6 | 7.0 | 0.00 | 0.40 | 0.00 | 92 | 1012.4 |
| 20260502225507 | 56 | 101 | 2.6 | 8.7 | 0.01 | 0.40 | 0.00 | 92 | 1012.6 |
| 20260502225007 | 56 | 104 | 2.6 | 7.8 | 0.01 | 0.40 | 0.00 | 92 | 1012.7 |
| 20260502224506 | 56 | 104 | 2.6 | 6.1 | 0.02 | 0.40 | 0.00 | 92 | 1012.7 |
| 20260502224006 | 56 | 104 | 2.6 | 7.0 | 0.02 | 0.40 | 0.00 | 92 | 1012.6 |
| 20260502223507 | 56 | 104 | 3.5 | 8.7 | 0.03 | 0.40 | 0.00 | 92 | 1012.5 |
| 20260502223006 | 56 | 102 | 5.2 | 7.8 | 0.04 | 0.40 | 0.00 | 91 | 1012.6 |
| 20260502222507 | 56 | 98 | 1.7 | 6.1 | 0.06 | 0.40 | 0.00 | 91 | 1012.6 |
| 20260502222007 | 56 | 98 | 5.2 | 8.7 | 0.07 | 0.40 | 0.00 | 91 | 1012.7 |
| 20260502221507 | 57 | 104 | 4.3 | 8.7 | 0.08 | 0.40 | 0.00 | 91 | 1012.6 |
| 20260502221007 | 57 | 96 | 5.2 | 10.4 | 0.10 | 0.40 | 0.00 | 90 | 1012.6 |
| 20260502210007 | 61 | 220 | 6.1 | 12.2 | 0.09 | 0.12 | 0.12 | 69 | 1014.4 |
| 20260502203006 | 60 | 344 | 1.7 | 2.6 | 0.00 | 0.02 | 0.02 | 61 | 1013.2 |
| 20260502202506 | 60 | 344 | 1.7 | 2.6 | 0.00 | 0.02 | 0.02 | 61 | 1013.3 |
| 20260502202006 | 60 | 344 | 1.7 | 2.6 | 0.00 | 0.02 | 0.02 | 61 | 1013.3 |
| 20260502201506 | 60 | 344 | 0.9 | 2.6 | 0.00 | 0.02 | 0.02 | 61 | 1013.3 |
| 20260502201006 | 60 | 344 | 0.9 | 2.6 | 0.00 | 0.02 | 0.02 | 61 | 1013.4 |
| 20260502200006 | 60 | 344 | 0.9 | 2.6 | 0.00 | 0.02 | 0.02 | 60 | 1013.5 |
| 20260502195506 | 60 | 344 | 0.9 | 1.7 | 0.00 | 0.02 | 0.02 | 60 | 1013.5 |
| 20260502195007 | 60 | 344 | 0.9 | 2.6 | 0.00 | 0.02 | 0.02 | 60 | 1013.7 |
| 20260502194506 | 60 | 344 | 1.7 | 2.6 | 0.00 | 0.02 | 0.02 | 60 | 1013.8 |
| 20260502192506 | 61 | 344 | 0.9 | 2.6 | 0.00 | 0.02 | 0.02 | 61 | 1013.8 |
| 20260502192006 | 61 | 344 | 0.9 | 2.6 | 0.00 | 0.02 | 0.02 | 61 | 1013.8 |
| 20260502191506 | 61 | 344 | 0.9 | 2.6 | 0.00 | 0.02 | 0.02 | 61 | 1013.8 |
| 20260502191006 | 61 | 344 | 0.9 | 4.3 | 0.00 | 0.02 | 0.02 | 60 | 1013.8 |
| 20260502184006 | 62 | 344 | 1.7 | 4.3 | 0.00 | 0.02 | 0.02 | 59 | 1013.8 |
| 20260502183506 | 63 | 344 | 2.6 | 6.1 | 0.00 | 0.02 | 0.02 | 58 | 1013.8 |
| 20260502181506 | 64 | 340 | 1.7 | 5.2 | 0.00 | 0.02 | 0.02 | 55 | 1013.9 |
| 20260502181005 | 64 | 339 | 0.9 | 5.2 | 0.00 | 0.02 | 0.02 | 56 | 1013.9 |
| 20260502163006 | 69 | 340 | 4.3 | 6.1 | 0.00 | 0.02 | 0.02 | 51 | 1014.9 |
| 20260502162006 | 69 | 313 | 3.5 | 6.1 | 0.00 | 0.02 | 0.02 | 49 | 1015.2 |
| 20260502161506 | 69 | 327 | 3.5 | 6.1 | 0.00 | 0.02 | 0.02 | 49 | 1015.3 |
| 20260502161005 | 69 | 342 | 2.6 | 6.1 | 0.00 | 0.02 | 0.02 | 50 | 1015.3 |
| 20260502151505 | 71 | 291 | 4.3 | 7.0 | 0.00 | 0.02 | 0.02 | 46 | 1015.6 |
| 20260502151006 | 71 | 250 | 1.7 | 7.8 | 0.00 | 0.02 | 0.02 | 46 | 1015.7 |
| 20260502122504 | 67 | 244 | 3.5 | 7.0 | 0.00 | 0.02 | 0.02 | 68 | 1017.3 |
| 20260502122005 | 67 | 272 | 5.2 | 8.7 | 0.00 | 0.02 | 0.02 | 69 | 1017.3 |
| 20260502115005 | 66 | 264 | 5.2 | 10.4 | 0.00 | 0.02 | 0.02 | 71 | 1017.6 |
| 20260502114005 | 66 | 250 | 4.3 | 7.8 | 0.00 | 0.02 | 0.02 | 73 | 1017.7 |
| 20260502113505 | 66 | 230 | 6.1 | 11.3 | 0.00 | 0.02 | 0.02 | 73 | 1017.8 |
| 20260502113005 | 66 | 184 | 4.3 | 10.4 | 0.00 | 0.02 | 0.02 | 74 | 1017.8 |
| 20260502110004 | 65 | 231 | 3.5 | 10.4 | 0.00 | 0.02 | 0.02 | 77 | 1017.9 |
| 20260502105505 | 65 | 249 | 5.2 | 10.4 | 0.00 | 0.02 | 0.02 | 76 | 1017.9 |
| 20260502105005 | 65 | 252 | 4.3 | 10.4 | 0.00 | 0.02 | 0.02 | 77 | 1017.9 |
| 20260502104505 | 65 | 261 | 5.2 | 10.4 | 0.00 | 0.02 | 0.02 | 78 | 1017.9 |
| 20260502104005 | 64 | 259 | 3.5 | 8.7 | 0.00 | 0.02 | 0.02 | 79 | 1017.9 |
| 20260502102505 | 65 | 234 | 4.3 | 10.4 | 0.00 | 0.02 | 0.02 | 78 | 1018.0 |
| 20260502102004 | 65 | 245 | 3.5 | 11.3 | 0.00 | 0.02 | 0.02 | 78 | 1017.9 |
| 20260502071008 | 57 | 241 | 0.0 | 0.0 | 0.02 | 0.02 | 0.02 | 85 | 1017.9 |
| 20260502070008 | 57 | 241 | 0.0 | 0.0 | 0.01 | 0.01 | 0.01 | 83 | 1017.9 |
| 20260502065507 | 58 | 241 | 0.0 | 0.0 | 0.01 | 0.01 | 0.01 | 83 | 1017.9 |
| 20260502065007 | 58 | 241 | 0.0 | 0.0 | 0.01 | 0.01 | 0.01 | 82 | 1017.9 |
| 20260502064008 | 58 | 241 | 0.9 | 1.7 | 0.00 | 0.00 | 0.00 | 81 | 1018.2 |
| 20260502063507 | 58 | 241 | 0.0 | 0.9 | 0.00 | 0.00 | 0.00 | 80 | 1018.1 |
| 20260502063007 | 58 | 241 | 0.0 | 1.7 | 0.00 | 0.00 | 0.00 | 79 | 1018.1 |
| 20260502062507 | 58 | 241 | 0.0 | 2.6 | 0.00 | 0.00 | 0.00 | 78 | 1018.2 |
| 20260502054507 | 58 | 241 | 0.9 | 2.6 | 0.00 | 0.00 | 0.00 | 76 | 1018.1 |
| 20260502054007 | 58 | 241 | 0.0 | 0.9 | 0.00 | 0.00 | 0.00 | 75 | 1018.1 |
| 20260502053507 | 58 | 241 | 0.0 | 0.9 | 0.00 | 0.00 | 0.00 | 76 | 1018.0 |
| 20260502053007 | 58 | 241 | 0.0 | 0.9 | 0.00 | 0.00 | 0.00 | 76 | 1018.0 |
| 20260502052507 | 58 | 241 | 0.0 | 1.7 | 0.00 | 0.00 | 0.00 | 75 | 1017.9 |
| 20260502052007 | 58 | 241 | 0.9 | 2.6 | 0.00 | 0.00 | 0.00 | 75 | 1018.0 |
| 20260502045507 | 57 | 242 | 1.7 | 2.6 | 0.00 | 0.00 | 0.00 | 74 | 1017.9 |
| 20260502045007 | 56 | 242 | 1.7 | 4.3 | 0.00 | 0.00 | 0.00 | 73 | 1017.9 |
| 20260502044507 | 56 | 243 | 0.9 | 5.2 | 0.00 | 0.00 | 0.00 | 72 | 1017.9 |
| 20260502044007 | 55 | 24 | 1.7 | 2.6 | 0.00 | 0.00 | 0.00 | 70 | 1018.0 |
| 20260502043507 | 54 | 25 | 0.0 | 2.6 | 0.00 | 0.00 | 0.00 | 69 | 1018.0 |
| 20260502042507 | 53 | 25 | 0.0 | 0.0 | 0.00 | 0.00 | 0.00 | 70 | 1018.0 |
| 20260502042007 | 53 | 25 | 0.0 | 0.0 | 0.00 | 0.00 | 0.00 | 70 | 1017.9 |
| 20260502033007 | 53 | 25 | 0.0 | 0.0 | 0.00 | 0.00 | 0.00 | 69 | 1018.0 |
| 20260502032507 | 53 | 25 | 0.0 | 0.0 | 0.00 | 0.00 | 0.00 | 69 | 1018.1 |
| 20260502032006 | 53 | 25 | 0.0 | 0.9 | 0.00 | 0.00 | 0.00 | 69 | 1018.3 |
| 20260502031507 | 53 | 25 | 0.9 | 1.7 | 0.00 | 0.00 | 0.00 | 69 | 1018.2 |
| 20260502031007 | 53 | 25 | 0.0 | 0.9 | 0.00 | 0.00 | 0.00 | 69 | 1018.4 |
| 20260502023506 | 54 | 25 | 0.0 | 0.0 | 0.00 | 0.00 | 0.00 | 68 | 1018.3 |
| 20260502023007 | 54 | 25 | 0.0 | 0.0 | 0.00 | 0.00 | 0.00 | 66 | 1018.4 |
| 20260502022507 | 55 | 25 | 0.0 | 0.0 | 0.00 | 0.00 | 0.00 | 65 | 1018.4 |
| 20260502022007 | 55 | 25 | 0.0 | 0.0 | 0.00 | 0.00 | 0.00 | 65 | 1018.4 |
| 20260502021507 | 55 | 25 | 0.0 | 0.0 | 0.00 | 0.00 | 0.00 | 65 | 1018.4 |
| 20260502021007 | 55 | 25 | 0.0 | 0.0 | 0.00 | 0.00 | 0.00 | 65 | 1018.4 |
| 20260502020007 | 55 | 25 | 0.0 | 0.0 | 0.00 | 0.00 | 0.00 | 64 | 1018.4 |
| 20260502015507 | 55 | 25 | 0.0 | 0.0 | 0.00 | 0.00 | 0.00 | 64 | 1018.4 |
| 20260502014006 | 56 | 25 | 0.0 | 0.0 | 0.00 | 0.00 | 0.00 | 62 | 1018.5 |